Weather Roundup
Issued by NWS Springfield, MO

Home | Current Version | Previous Version | Text Only | Print | Product List | Glossary On
Versions: 1 2 3 4 5 6 7 8 9 10 11 12 13 14 15 16 17 18 19 20 21 22 23 24 25 26 27 28 29 30 31 32 33 34 35 36 37 38 39 40 41 42 43 44 45 46 47 48 49 50
000
NZUS99 KSGF 240107
HRRSGF

HOURLY WEATHER
NATIONAL WEATHER SERVICE SPRINGFIELD MO
700 PM CST MON JAN 23 2017

......SGF CWA......

CITY           SKY/WX    TMP DP  RH WIND       PRES   REMARKS
SPRINGFIELD    CLEAR     41  31  67 E10       29.82F
JOPLIN         CLEAR     42  32  67 VRB3      29.82S
WEST PLAINS    CLEAR     41  32  70 CALM      29.85R
ROLLA          PTCLDY    37  33  85 NW5       29.83R WCI  33
OSAGE BEACH    CLEAR     37  33  85 CALM      29.85F
BRANSON        CLEAR     39  32  75 CALM      29.85R

......SURROUNDING SGF CWA......

CITY           SKY/WX    TMP DP  RH WIND       PRES   REMARKS
CHANUTE        CLEAR     42  34  73 SE6       29.81R
PARSONS        CLEAR     44  35  70 SE5       29.82R
COFFEYVILLE    CLEAR     43  34  70 SE6       29.81R
EMPORIA        CLEAR     42  34  73 SE9       29.77R
GROVE OK       CLEAR     43  36  75 CALM      29.83S
ROGERS AR      CLEAR     45  32  60 E5        29.83S
SILOAM SPRINGS   N/A    N/A N/A N/A MISG        N/A
HARRISON AR    CLEAR     44  33  65 CALM      29.84S
NEAR YELLVILLE CLEAR     45  30  57 CALM      29.83S

......KANSAS AND MISSOURI......

CITY           SKY/WX    TMP DP  RH WIND       PRES   REMARKS
KANSAS CTY INT CLEAR     36  29  75 SE8       29.83R WCI  30
DOWNTOWN KC    CLEAR     38  32  79 E6        29.84R WCI  33
COLUMBIA       CLOUDY    36  31  82 N3        29.85F
SEDALIA        CLOUDY    35  31  85 S3        29.88R
ST JOSEPH      CLEAR     34  31  88 E7        29.84S WCI  28
ST LOUIS       CLOUDY    42  34  73 NW3       29.86R
SPIRIT OF STL  CLOUDY    42  34  73 NW3       29.86R
KIRKSVILLE     CLOUDY    33  29  85 NW3       29.87R
WICHITA        PTCLDY    48  32  53 SE14      29.70F
TOPEKA         CLEAR     35  31  85 E7        29.81R WCI  29
OLATHE         CLEAR     36  33  89 E6        29.82S WCI  31

......TENNESSEE......

CITY           SKY/WX    TMP DP  RH WIND       PRES   REMARKS
MEMPHIS        MOCLDY    48  39  71 CALM      29.85S
NASHVILLE      CLOUDY    45  36  70 N14       29.78R

......ARKANSAS.......

CITY           SKY/WX    TMP DP  RH WIND       PRES   REMARKS
FAYETTEVILLE   CLEAR     37  33  85 S8        29.82S WCI  31
FT SMITH       CLEAR     48  33  56 SE3       29.82S
LITTLE ROCK    CLEAR     48  38  68 CALM      29.87R

......OKLAHOMA.......

CITY           SKY/WX    TMP DP  RH WIND       PRES   REMARKS
TULSA          CLEAR     46  35  65 E7        29.79S
PONCA CITY     CLEAR     49  30  48 SE9       29.73S
MCALESTER      PTCLDY    55  27  34 S5        29.80S
OKLAHOMA CITY  CLEAR     48  32  53 SE10      29.72F

......IOWA............

CITY           SKY/WX    TMP DP  RH WIND       PRES   REMARKS
DES MOINES     CLOUDY    34  28  79 NE3       29.85S
QUAD CITIES    CLOUDY    38  33  82 W9        29.85R WCI  31

......ILLINOIS........

CITY           SKY/WX    TMP DP  RH WIND       PRES   REMARKS
QUINCY         CLOUDY    35  31  85 W7        29.87R WCI  29
CHICAGO        CLOUDY    40  35  83 NW10      29.78R WCI  33




USA.gov is the U.S. government's official web portal to all federal, state and local government web resources and services.